Location: Nitra
(0.0000°N, 18.0833°E)
Time: 18:13:09
(UTC+01:00)

ARIANE DEB (SYLDA) - Pass Details

Date: 24 January 2021
Orbit: 595 x 35690 km, 6.4° (Epoch: 01 March)

Event Time Altitude Azimuth Distance (km) Brightness Sun altitude
Rises 19:20:05 0° 260° (W) 4,862 8.2 -18.9°
Reaches altitude 10° 19:24:24 10° 252° (WSW) 2,725 6.6 -19.9°
Maximum altitude 19:28:57 37° 182° (S) 962 3.2 -21.0°
Enters shadow 19:30:09 28° 140° (SE) 1,111 3.1 -21.3°
